Change the Weather History Date:

Thursday, December 19, 2013

  Actual Average (KMBS) Record (KMBS)
Temperature  
Mean Temperature 28 °F 26 °F  
Max Temperature 33 °F 32 °F 50 °F (2002)
Min Temperature 24 °F 20 °F -2 °F (2004)
Degree Days  
Heating Degree Days 36    
Month to date heating degree days  
Since 1 July heating degree days  
Cooling Degree Days 0    
Month to date cooling degree days  
Year to date cooling degree days  
Moisture  
Dew Point 24 °F    
Average Humidity 81    
Maximum Humidity 100    
Minimum Humidity 59    
Precipitation  
Precipitation 0.00 in 0.05 in 0.31 in (2001)
Month to date precipitation 1.18  
Year to date precipitation 30.86  
Snow  
Snow 0.00 in - - ()
Month to date snowfall  
Since 1 July snowfall  
Snow Depth -    
Sea Level Pressure  
Sea Level Pressure 29.91 in    
Wind  
Wind Speed 8 mph (West)    
Max Wind Speed 12 mph    
Max Gust Speed -    
Visibility 9 miles    
Events Snow    
T = Trace of Precipitation, MM = Missing Value Source: NWS Daily Summary

Daily Weather History Graph

Daily Weather History Graph

Search for Another Location

Airport or City:

Trip Planner

Search our weather history database for the weather conditions in past years. The results will help you decide how hot, cold, wet, or windy it might be!

Date:

Astronomy

Dec. 19, 2013 Rise Set
Actual Time 8:04 AM EST 5:01 PM EST
Civil Twilight 7:31 AM EST 5:34 PM EST
Nautical Twilight 6:55 AM EST 6:10 PM EST
Astronomical Twilight 6:20 AM EST 6:45 PM EST
Moon 7:30 PM EST (12/19) 9:18 AM EST (12/19)
Length of Visible Light 10h 02m
Length of Day
8h 57m
Waning Gibbous, 95% of the Moon is Illuminated
Dec 19
Waning Gibbous
Dec 25
Last Quarter
Jan 1
New
Jan 7
First Quarter
Jan 15
Full

Hourly Weather History & Observations

Time (EST) Temp. Windchill Dew Point Humidity Pressure Visibility Wind Dir Wind Speed Gust Speed Precip Events Conditions
12:15 AM 26.6 °F 16.8 °F 14.0 °F 59% 29.81 in 10.0 mi South 10.4 mph - N/A   Clear
12:35 AM 26.6 °F 16.2 °F 15.8 °F 64% 29.80 in 10.0 mi SSW 11.5 mph - N/A   Clear
12:55 AM 26.6 °F 16.8 °F 15.8 °F 64% 29.79 in 10.0 mi SSW 10.4 mph - N/A   Clear
1:15 AM 26.6 °F 16.2 °F 17.6 °F 69% 29.79 in 10.0 mi SSW 11.5 mph - N/A   Clear
1:35 AM 26.6 °F 17.5 °F 17.6 °F 69% 29.79 in 10.0 mi SW 9.2 mph - N/A   Clear
1:55 AM 26.6 °F 16.8 °F 17.6 °F 69% 29.78 in 10.0 mi SW 10.4 mph - N/A   Clear
2:15 AM 26.6 °F 17.5 °F 17.6 °F 69% 29.79 in 10.0 mi SW 9.2 mph - N/A   Clear
2:35 AM 26.6 °F 18.2 °F 17.6 °F 69% 29.79 in 10.0 mi SW 8.1 mph - N/A   Clear
2:55 AM 26.6 °F 19.1 °F 17.6 °F 69% 29.80 in 10.0 mi SW 6.9 mph - N/A   Clear
3:15 AM 26.6 °F 18.2 °F 17.6 °F 69% 29.80 in 10.0 mi SW 8.1 mph - N/A   Clear
3:35 AM 26.6 °F 19.1 °F 17.6 °F 69% 29.81 in 10.0 mi SW 6.9 mph - N/A   Clear
3:55 AM 24.8 °F 16.1 °F 17.6 °F 74% 29.80 in 10.0 mi SSW 8.1 mph - N/A   Clear
4:15 AM 26.6 °F 17.5 °F 19.4 °F 74% 29.80 in 10.0 mi SW 9.2 mph - N/A   Clear
4:35 AM 26.6 °F 19.1 °F 19.4 °F 74% 29.80 in 10.0 mi SW 6.9 mph - N/A   Clear
4:55 AM 28.4 °F 20.4 °F 19.4 °F 69% 29.81 in 10.0 mi SW 8.1 mph - N/A   Clear
5:15 AM 26.6 °F 18.2 °F 19.4 °F 74% 29.81 in 10.0 mi SW 8.1 mph - N/A   Clear
5:35 AM 26.6 °F 18.2 °F 19.4 °F 74% 29.81 in 10.0 mi SW 8.1 mph - N/A   Clear
5:55 AM 28.4 °F 20.4 °F 21.2 °F 74% 29.82 in 10.0 mi SW 8.1 mph - N/A   Clear
6:15 AM 26.6 °F 18.2 °F 21.2 °F 80% 29.82 in 10.0 mi SW 8.1 mph - N/A   Clear
6:35 AM 26.6 °F 17.5 °F 21.2 °F 80% 29.83 in 10.0 mi SW 9.2 mph - N/A   Clear
6:55 AM 26.6 °F 17.5 °F 21.2 °F 80% 29.83 in 10.0 mi SW 9.2 mph - N/A   Clear
7:15 AM 28.4 °F 19.7 °F 21.2 °F 74% 29.84 in 10.0 mi SW 9.2 mph - N/A   Clear
7:35 AM 28.4 °F 19.7 °F 23.0 °F 80% 29.84 in 10.0 mi SW 9.2 mph - N/A   Clear
7:55 AM 28.4 °F 20.4 °F 23.0 °F 80% 29.85 in 10.0 mi SW 8.1 mph - N/A   Clear
8:15 AM 28.4 °F 20.4 °F 23.0 °F 80% 29.86 in 10.0 mi SW 8.1 mph - N/A   Clear
8:35 AM 28.4 °F 20.4 °F 23.0 °F 80% 29.87 in 10.0 mi SW 8.1 mph - N/A   Clear
8:55 AM 28.4 °F 22.2 °F 23.0 °F 80% 29.88 in 10.0 mi SW 5.8 mph - N/A   Clear
9:15 AM 28.4 °F 21.2 °F 23.0 °F 80% 29.88 in 10.0 mi SW 6.9 mph - N/A   Clear
9:35 AM 30.2 °F 24.3 °F 24.8 °F 80% 29.89 in 10.0 mi WSW 5.8 mph - N/A   Clear
9:55 AM 30.2 °F 24.3 °F 26.6 °F 86% 29.91 in 10.0 mi SW 5.8 mph - N/A   Clear
10:14 AM 32.0 °F 25.6 °F 26.6 °F 80% 29.91 in 10.0 mi SW 6.9 mph - N/A   Clear
10:35 AM 32.0 °F 25.6 °F 28.4 °F 87% 29.93 in 10.0 mi WSW 6.9 mph - N/A   Clear
10:55 AM 32.0 °F 27.5 °F 28.4 °F 87% 29.94 in 10.0 mi WSW 4.6 mph - N/A   Clear
11:14 AM 32.0 °F 25.6 °F 28.4 °F 87% 29.95 in 10.0 mi WSW 6.9 mph - N/A   Clear
11:35 AM 33.8 °F 28.6 °F 30.2 °F 87% 29.95 in 10.0 mi WSW 5.8 mph - N/A   Clear
11:55 AM 33.8 °F 30.8 °F 30.2 °F 87% 29.95 in 10.0 mi West 3.5 mph - N/A   Clear
12:14 PM 33.8 °F 28.6 °F 30.2 °F 87% 29.95 in 7.0 mi WNW 5.8 mph - N/A   Clear
12:35 PM 33.8 °F 27.0 °F 30.2 °F 87% 29.95 in 10.0 mi NW 8.1 mph - N/A   Clear
12:55 PM 33.8 °F 27.0 °F 30.2 °F 87% 29.96 in 10.0 mi NNW 8.1 mph - N/A   Clear
1:15 PM 33.8 °F 27.7 °F 30.2 °F 87% 29.96 in 7.0 mi NNW 6.9 mph - N/A   Clear
1:35 PM 33.8 °F 29.6 °F 30.2 °F 87% 29.96 in 7.0 mi North 4.6 mph - N/A   Clear
1:55 PM 33.8 °F 29.6 °F 30.2 °F 87% 29.95 in 10.0 mi North 4.6 mph - N/A   Clear
2:14 PM 32.0 °F 24.8 °F 28.4 °F 87% 29.95 in 10.0 mi NNE 8.1 mph - N/A   Clear
2:35 PM 32.0 °F 24.2 °F 28.4 °F 87% 29.96 in 10.0 mi NNE 9.2 mph - N/A   Scattered Clouds
2:55 PM 32.0 °F 24.8 °F 26.6 °F 80% 29.97 in 10.0 mi NNE 8.1 mph - N/A   Mostly Cloudy
3:15 PM 32.0 °F 25.6 °F 26.6 °F 80% 29.96 in 10.0 mi NNE 6.9 mph - N/A   Scattered Clouds
3:35 PM 32.0 °F 24.2 °F 26.6 °F 80% 29.97 in 10.0 mi NNE 9.2 mph - N/A   Scattered Clouds
3:55 PM 30.2 °F 22.6 °F 26.6 °F 86% 29.99 in 10.0 mi NNE 8.1 mph - N/A   Clear
4:15 PM 30.2 °F 22.6 °F 26.6 °F 86% 30.00 in 10.0 mi NE 8.1 mph - N/A   Clear
4:35 PM 30.2 °F 24.3 °F 26.6 °F 86% 30.00 in 10.0 mi NE 5.8 mph - N/A   Clear
4:55 PM 30.2 °F 22.6 °F 24.8 °F 80% 30.01 in 10.0 mi NE 8.1 mph - N/A   Clear
5:15 PM 30.2 °F 22.6 °F 24.8 °F 80% 30.00 in 10.0 mi NE 8.1 mph - N/A   Scattered Clouds
5:35 PM 30.2 °F 25.4 °F 24.8 °F 80% 30.01 in 10.0 mi NE 4.6 mph - N/A   Scattered Clouds
5:55 PM 28.4 °F 23.3 °F 23.0 °F 80% 30.00 in 10.0 mi NE 4.6 mph - N/A   Clear
6:15 PM 28.4 °F 23.3 °F 23.0 °F 80% 30.00 in 10.0 mi NE 4.6 mph - N/A   Clear
6:35 PM 28.4 °F 21.2 °F 23.0 °F 80% 29.99 in 10.0 mi NNE 6.9 mph - N/A   Clear
6:55 PM 28.4 °F 22.2 °F 23.0 °F 80% 29.99 in 10.0 mi NNE 5.8 mph - N/A   Clear
7:14 PM 28.4 °F - 23.0 °F 80% 29.99 in 10.0 mi Calm Calm - N/A   Scattered Clouds
7:35 PM 28.4 °F 24.6 °F 24.8 °F 86% 29.99 in 10.0 mi ENE 3.5 mph - N/A   Overcast
7:55 PM 28.4 °F 21.2 °F 26.6 °F 93% 29.98 in 10.0 mi NE 6.9 mph - N/A   Overcast
8:14 PM 28.4 °F 23.3 °F 26.6 °F 93% 29.98 in 10.0 mi ENE 4.6 mph - N/A   Overcast
8:35 PM 30.2 °F 23.4 °F 26.6 °F 86% 29.98 in 10.0 mi NE 6.9 mph - N/A   Overcast
8:55 PM 30.2 °F 24.3 °F 26.6 °F 86% 29.98 in 7.0 mi NE 5.8 mph - N/A   Overcast
9:15 PM 30.2 °F 23.4 °F 26.6 °F 86% 29.97 in 7.0 mi NE 6.9 mph - N/A   Overcast
9:35 PM 30.2 °F 22.6 °F 26.6 °F 86% 29.98 in 5.0 mi NE 8.1 mph - N/A Snow Light Snow
9:55 PM 30.2 °F 23.4 °F 28.4 °F 93% 29.98 in 5.0 mi NE 6.9 mph - N/A Snow Light Snow
10:14 PM 30.2 °F 21.9 °F 28.4 °F 93% 29.97 in 5.0 mi NE 9.2 mph - N/A Snow Light Snow
10:35 PM 30.2 °F 21.9 °F 30.2 °F 100% 29.96 in 3.0 mi NE 9.2 mph - N/A Snow Light Snow
10:55 PM 30.2 °F 22.6 °F 30.2 °F 100% 29.95 in 3.0 mi NE 8.1 mph - N/A   Overcast
11:14 PM 30.2 °F 23.4 °F 30.2 °F 100% 29.94 in 4.0 mi NE 6.9 mph - N/A Snow Light Snow
11:35 PM 30.2 °F 22.6 °F 30.2 °F 100% 29.93 in 3.0 mi ENE 8.1 mph - N/A Snow Light Snow
11:55 PM 30.2 °F 24.3 °F 30.2 °F 100% 29.93 in 2.5 mi ENE 5.8 mph - N/A Snow Light Snow